Home > Weather > Hayward > Past weeks

Flag for USA Past Weather in Hayward, California, USA — Yesterday and Last 2 Weeks

Now
62 °F

Clear.


Feels Like: 62 °F
Forecast: 55 / 81 °F
Wind: 5 mph from Northwest

Location: Hayward Air Terminal

Current Time: Jun 25, 2016 at 1:59:50 AM

Latest Report: Jun 25, 2016 at 12:54 AM


Visibility: 10 mi

Pressure: 30.00 "Hg

Humidity: 65%

Dew Point: 50 °F

Location of HaywardLocation

Past Weather in Hayward — Graph

°F

Hayward Temperature Yesterday

Maximum temperature yesterday: 76 °F (at 1:54 PM)
Minimum temperature yesterday: 55 °F (at 4:54 AM)
Average temperature yesterday: 64 °F

High & Low Weather Summary for the Past Weeks

 TemperatureHumidityPressure
High87 °F (Jun 19, 1:54 PM)87% (Jun 10, 3:54 AM)30.22 "Hg (Jun 10, 3:54 AM)
Low52 °F (Jun 11, 5:54 AM)16% (Jun 19, 1:54 PM)29.90 "Hg (Jun 11, 4:54 PM)
Average64 °F61%30.06 "Hg
* Reported Jun 9 11:54 PM — Jun 24 11:54 PM, Hayward, Weather by CustomWeather, © 2016

Note: Actual official high and low records may vary slightly from our data, if they occured in-between our weather recording intervals... More about our weather records

Advertising

Hayward Weather History for the Previous 24 Hours

Scroll right to see more
 ConditionsComfort  
Time TempWeatherWind HumidityBarometerVisibility
11:54 PM
Fri, Jun 24
62 °FClear.5 mph65%30.01 "Hg10 mi
10:54 PM63 °FClear.5 mph63%30.01 "Hg10 mi
9:54 PM65 °FClear.8 mph63%30.01 "Hg10 mi
8:54 PM66 °FSunny.6 mph61%30.00 "Hg10 mi
7:54 PM69 °FSunny.6 mph53%29.99 "Hg10 mi
6:54 PM70 °FSunny.9 mph47%30.01 "Hg10 mi
5:54 PM72 °FSunny.8 mph44%30.02 "Hg10 mi
4:54 PM71 °FSunny.14 mph47%30.04 "Hg10 mi
3:54 PM72 °FSunny.14 mph52%30.07 "Hg10 mi
2:54 PM76 °FSunny.15 mph40%30.07 "Hg10 mi
1:54 PM76 °FSunny.9 mph36%30.08 "Hg10 mi
12:54 PM72 °FSunny.8 mph44%30.09 "Hg10 mi
11:54 AM68 °FSunny.7 mph53%30.11 "Hg10 mi
10:54 AM66 °FSunny.7 mph56%30.12 "Hg10 mi
9:54 AM62 °FScattered clouds.6 mph65%30.12 "Hg10 mi
8:54 AM61 °FScattered clouds.7 mph67%30.12 "Hg10 mi
7:54 AM56 °FLow clouds.No wind81%30.11 "Hg10 mi
6:54 AM56 °FLow clouds.7 mph81%30.11 "Hg10 mi
5:54 AM56 °FLow clouds.9 mph81%30.09 "Hg10 mi
4:54 AM55 °FLow clouds.9 mph83%30.09 "Hg10 mi
3:54 AM56 °FLow clouds.8 mph84%30.10 "Hg10 mi
2:54 AM57 °FLow clouds.No wind83%30.10 "Hg10 mi
1:54 AM59 °FLow clouds.6 mph78%30.11 "Hg10 mi
Weather by CustomWeather, © 2016

See weather overviewHow to use our weather pages